When you browse on this site, cookies collect data to enhance your experience and personalize the content and advertising you see.
Visit our Privacy Policy to learn more. By continuing to use the site, you agree to this use of cookies and data.
  • In Slovakia
  • List of Countries
  • For 7 days
  • Water Temperature
  • Weather Map
  • Weather Widgets
  • user-avatar
    Login

    Hourly Weather Yasyutevichi

    Today, 22 August, Thursday

    Time Temperature Precipitation Wind Pressure Humidity
    00:00 +13°C° 0 mm 5 mps 747 mmHg 90%
    01:00 +13°C° 0 mm 5 mps 747 mmHg 89%
    02:00 +12°C° 0 mm 4 mps 748 mmHg 91%
    03:00 +12°C° 0 mm 3 mps 748 mmHg 92%
    04:00 +11°C° 0 mm 3 mps 748 mmHg 93%
    05:00 +11°C° 0 mm 3 mps 748 mmHg 95%
    06:00 +12°C° 0 mm 3 mps 748 mmHg 92%
    07:00 +13°C° 0 mm 3 mps 749 mmHg 89%
    08:00 +16°C° 0 mm 3 mps 750 mmHg 85%
    09:00 +17°C° 0 mm 3 mps 750 mmHg 78%
    10:00 +18°C° 0 mm 3 mps 750 mmHg 70%
    11:00 +20°C° 0 mm 3 mps 750 mmHg 63%
    12:00 +20°C° 0 mm 3 mps 750 mmHg 60%
    13:00 +21°C° 0 mm 3 mps 750 mmHg 57%
    14:00 +21°C° 0 mm 3 mps 750 mmHg 53%
    15:00 +21°C° 0 mm 2 mps 750 mmHg 55%
    16:00 +21°C° 0 mm 2 mps 750 mmHg 57%
    17:00 +20°C° 0 mm 2 mps 749 mmHg 60%
    18:00 +19°C° 0 mm 2 mps 749 mmHg 64%
    19:00 +17°C° 0 mm 2 mps 750 mmHg 68%
    20:00 +16°C° 0 mm 1 mps 750 mmHg 72%
    21:00 +15°C° 0 mm 1 mps 750 mmHg 73%
    22:00 +15°C° 0 mm 1 mps 750 mmHg 75%
    23:00 +14°C° 0 mm 1 mps 750 mmHg 77%

    Tomorrow, 23 August, Friday

    Time Temperature Precipitation Wind Pressure Humidity
    00:00 +14°C° 0 mm 1 mps 750 mmHg 79%
    01:00 +13°C° 0 mm 1 mps 750 mmHg 80%
    02:00 +13°C° 0 mm 1 mps 751 mmHg 82%
    03:00 +12°C° 0 mm 1 mps 750 mmHg 83%
    04:00 +11°C° 0 mm 0 mps 750 mmHg 84%
    05:00 +11°C° 0 mm 0 mps 750 mmHg 85%
    06:00 +12°C° 0 mm 0 mps 750 mmHg 80%
    07:00 +14°C° 0 mm 0 mps 751 mmHg 75%
    08:00 +16°C° 0 mm 0 mps 751 mmHg 69%
    09:00 +17°C° 0 mm 0 mps 751 mmHg 65%
    10:00 +19°C° 0 mm 0 mps 751 mmHg 60%
    11:00 +20°C° 0 mm 0 mps 751 mmHg 55%
    12:00 +21°C° 0 mm 0 mps 751 mmHg 52%
    13:00 +21°C° 0 mm 0 mps 750 mmHg 50%
    14:00 +22°C° 0 mm 0 mps 750 mmHg 47%
    15:00 +22°C° 0 mm 0 mps 750 mmHg 49%
    16:00 +23°C° 0 mm 1 mps 750 mmHg 50%
    17:00 +23°C° 0 mm 1 mps 750 mmHg 51%
    18:00 +21°C° 0 mm 1 mps 749 mmHg 58%
    19:00 +17°C° 0 mm 0 mps 749 mmHg 64%
    20:00 +15°C° 0 mm 0 mps 749 mmHg 70%
    21:00 +14°C° 0 mm 0 mps 749 mmHg 72%
    22:00 +14°C° 0 mm 0 mps 749 mmHg 74%
    23:00 +13°C° 0 mm 0 mps 749 mmHg 76%

    Day after tomorrow, 24 August, Saturday

    Time Temperature Precipitation Wind Pressure Humidity
    00:00 +13°C° 0 mm 0 mps 749 mmHg 76%
    01:00 +13°C° 0 mm 0 mps 749 mmHg 77%
    02:00 +13°C° 0 mm 0 mps 749 mmHg 78%
    03:00 +13°C° 0 mm 1 mps 749 mmHg 79%
    04:00 +13°C° 0 mm 1 mps 749 mmHg 80%
    05:00 +13°C° 0 mm 1 mps 749 mmHg 81%
    06:00 +14°C° 0 mm 1 mps 749 mmHg 77%
    07:00 +16°C° 0 mm 1 mps 749 mmHg 73%
    08:00 +18°C° 0 mm 1 mps 749 mmHg 69%
    09:00 +20°C° 0 mm 1 mps 749 mmHg 65%
    10:00 +21°C° 0 mm 1 mps 749 mmHg 60%
    11:00 +23°C° 0 mm 1 mps 749 mmHg 56%
    12:00 +23°C° 0 mm 2 mps 749 mmHg 54%
    13:00 +24°C° 0 mm 2 mps 749 mmHg 52%
    14:00 +24°C° 0 mm 2 mps 748 mmHg 50%
    15:00 +24°C° 0 mm 1 mps 748 mmHg 52%
    16:00 +24°C° 0 mm 1 mps 748 mmHg 55%
    17:00 +24°C° 0 mm 1 mps 748 mmHg 57%
    18:00 +22°C° 0 mm 1 mps 748 mmHg 64%
    19:00 +20°C° 0 mm 1 mps 748 mmHg 70%
    20:00 +18°C° 0 mm 1 mps 748 mmHg 77%
    21:00 +16°C° 0 mm 1 mps 748 mmHg 78%
    22:00 +16°C° 0 mm 1 mps 748 mmHg 79%
    23:00 +14°C° 0 mm 0 mps 748 mmHg 80%

    25 August, Sunday

    Time Temperature Precipitation Wind Pressure Humidity
    00:00 +15°C° 0 mm 1 mps 748 mmHg 81%
    01:00 +15°C° 0 mm 1 mps 748 mmHg 82%
    02:00 +15°C° 0 mm 1 mps 748 mmHg 83%
    03:00 +15°C° 0 mm 1 mps 748 mmHg 84%
    04:00 +14°C° 0 mm 1 mps 748 mmHg 86%
    05:00 +14°C° 0 mm 1 mps 748 mmHg 87%
    06:00 +16°C° 0 mm 1 mps 748 mmHg 83%
    07:00 +18°C° 0 mm 1 mps 748 mmHg 79%
    08:00 +20°C° 0 mm 1 mps 748 mmHg 75%
    09:00 +21°C° 0 mm 1 mps 748 mmHg 72%
    10:00 +23°C° 0 mm 1 mps 749 mmHg 68%
    11:00 +24°C° 0 mm 1 mps 749 mmHg 64%
    12:00 +25°C° 0.1 mm 1 mps 749 mmHg 63%
    13:00 +25°C° 0.1 mm 1 mps 748 mmHg 62%
    14:00 +25°C° 0.1 mm 1 mps 748 mmHg 61%
    15:00 +25°C° 0.2 mm 1 mps 748 mmHg 64%
    16:00 +25°C° 0.2 mm 2 mps 748 mmHg 67%
    17:00 +24°C° 0.2 mm 2 mps 748 mmHg 70%
    18:00 +21°C° 0.1 mm 2 mps 748 mmHg 74%
    19:00 +20°C° 0.1 mm 2 mps 748 mmHg 79%
    20:00 +18°C° 0.1 mm 2 mps 748 mmHg 83%
    21:00 +17°C° 0 mm 2 mps 748 mmHg 84%
    22:00 +17°C° 0 mm 2 mps 748 mmHg 84%
    23:00 +16°C° 0 mm 2 mps 748 mmHg 85%

    26 August, Monday

    Time Temperature Precipitation Wind Pressure Humidity
    00:00 +16°C° 0 mm 2 mps 748 mmHg 87%
    01:00 +16°C° 0 mm 2 mps 748 mmHg 88%
    02:00 +15°C° 0 mm 2 mps 748 mmHg 90%
    03:00 +15°C° 0 mm 1 mps 748 mmHg 91%
    04:00 +15°C° 0 mm 1 mps 748 mmHg 92%
    05:00 +15°C° 0 mm 1 mps 748 mmHg 93%
    06:00 +16°C° 0 mm 1 mps 748 mmHg 89%
    07:00 +18°C° 0 mm 1 mps 748 mmHg 85%
    08:00 +19°C° 0 mm 1 mps 748 mmHg 82%
    09:00 +20°C° 0 mm 2 mps 748 mmHg 76%
    10:00 +21°C° 0 mm 2 mps 748 mmHg 71%
    11:00 +24°C° 0 mm 2 mps 749 mmHg 66%
    12:00 +24°C° 0.1 mm 2 mps 748 mmHg 64%
    13:00 +25°C° 0.1 mm 2 mps 748 mmHg 61%
    14:00 +25°C° 0.1 mm 2 mps 748 mmHg 59%
    15:00 +25°C° 0.2 mm 1 mps 747 mmHg 60%
    16:00 +25°C° 0.2 mm 1 mps 747 mmHg 61%
    17:00 +25°C° 0.2 mm 1 mps 747 mmHg 63%
    18:00 +23°C° 0.1 mm 1 mps 746 mmHg 69%
    19:00 +21°C° 0.1 mm 1 mps 746 mmHg 74%
    20:00 +18°C° 0.1 mm 0 mps 746 mmHg 80%
    21:00 +17°C° 0 mm 0 mps 746 mmHg 81%
    22:00 +17°C° 0 mm 0 mps 747 mmHg 82%
    23:00 +18°C° 0 mm 1 mps 747 mmHg 84%

    27 August, Tuesday

    Time Temperature Precipitation Wind Pressure Humidity
    00:00 +18°C° 0 mm 1 mps 747 mmHg 85%
    01:00 +16°C° 0 mm 0 mps 746 mmHg 86%
    02:00 +15°C° 0 mm 0 mps 746 mmHg 87%
    03:00 +15°C° 0 mm 0 mps 746 mmHg 88%
    04:00 +15°C° 0 mm 0 mps 746 mmHg 89%
    05:00 +15°C° 0 mm 0 mps 746 mmHg 89%
    06:00 +18°C° 0 mm 1 mps 746 mmHg 86%
    07:00 +19°C° 0 mm 1 mps 746 mmHg 83%
    08:00 +21°C° 0 mm 1 mps 746 mmHg 80%
    09:00 +22°C° 0 mm 1 mps 746 mmHg 76%
    10:00 +23°C° 0 mm 2 mps 746 mmHg 72%
    11:00 +24°C° 0 mm 2 mps 746 mmHg 67%
    12:00 +25°C° 0 mm 2 mps 746 mmHg 64%
    13:00 +25°C° 0 mm 2 mps 746 mmHg 60%
    14:00 +26°C° 0 mm 2 mps 746 mmHg 56%
    15:00 +26°C° 0 mm 2 mps 746 mmHg 59%
    16:00 +25°C° 0 mm 2 mps 746 mmHg 61%
    17:00 +25°C° 0 mm 2 mps 746 mmHg 64%
    18:00 +23°C° 0 mm 2 mps 746 mmHg 71%
    19:00 +20°C° 0 mm 2 mps 746 mmHg 78%
    20:00 +19°C° 0 mm 2 mps 746 mmHg 85%
    21:00 +18°C° 0 mm 2 mps 746 mmHg 85%
    22:00 +17°C° 0 mm 2 mps 746 mmHg 86%
    23:00 +17°C° 0 mm 2 mps 747 mmHg 86%
    Show more